Wind_Speed
52 54 55 53 51 49 49 51 53 53 53 55 56 56 56 56 55 52 50 47 49 54 54 51 48 47 46 44 42 40 38 39 38 34 32 32 32 32 33 33 34 36 36 36 36 38 39 40 41 41 41 41 40 39 39 38 38 38 39 40 40 39 39 39 38 38 38 38 39 39 39 38 38 38 37 36 36 36 37 38 38 38 37 36 36 36
52 55 55 51 50 50 52 53 53 53 53 55 56 56 56 56 54 52 51 49 50 55 54 51 49 47 45 44 43 41 38 35 35 36 35 33 31 29 29 30 30 31 32 33 35 37 39 41 42 42 42 41 41 40 39 38 37 37 37 38 39 39 39 38 37 37 37 37 38 39 39 39 39 38 36 35 35 36 37 38 38 38 37 37 37 37
53 56 53 50 51 53 53 52 52 53 53 54 54 55 56 55 53 53 52 50 51 54 53 52 51 48 45 44 42 39 36 33 32 34 36 35 30 26 27 28 28 28 28 28 31 33 36 39 41 42 42 41 41 40 39 38 37 37 36 36 37 38 38 38 37 37 37 38 39 40 40 39 39 37 36 36 36 37 37 38 38 38 38 38 39 39
55 56 52 51 53 53 53 52 53 54 54 54 53 54 55 53 53 54 54 52 51 53 53 52 51 48 46 45 42 38 34 32 30 31 33 34 31 26 26 27 27 28 28 27 29 31 33 37 39 41 42 42 41 41 40 40 40 39 38 37 37 38 38 38 37 37 37 38 40 40 40 39 38 37 37 38 37 37 37 37 38 39 39 40 40 39
57 55 52 51 52 52 53 53 53 54 54 54 53 54 53 51 52 55 55 54 53 53 53 52 50 46 45 45 41 36 32 31 31 30 30 30 30 28 27 28 28 28 30 30 30 31 32 34 37 40 43 44 43 42 41 41 42 41 39 39 39 39 38 38 38 38 38 39 40 40 40 40 39 38 39 39 38 38 39 39 39 39 40 40 40 40
56 53 50 50 51 52 54 54 53 52 53 55 54 52 51 51 53 53 54 55 56 55 52 52 51 44 41 43 42 37 34 33 33 32 28 26 26 26 27 28 28 28 30 28 27 30 33 34 37 39 41 44 44 43 43 43 43 41 40 40 40 39 39 39 39 39 40 40 41 41 41 41 41 41 40 39 40 41 42 42 42 41 41 41 41 42
57 52 50 51 52 53 55 55 51 48 52 56 54 50 49 51 52 52 53 55 55 55 53 52 53 48 42 42 42 41 39 38 37 34 30 26 24 24 23 24 26 28 29 27 24 26 31 34 36 39 40 42 43 44 44 44 43 43 42 42 42 41 41 40 40 41 41 42 42 43 43 43 43 42 41 42 43 44 44 44 44 42 42 42 43 44
57 53 50 50 51 54 55 53 49 48 53 57 54 51 50 51 52 52 53 54 53 53 53 53 56 55 49 43 42 43 42 42 41 39 35 31 30 27 23 21 25 30 32 31 28 27 30 33 35 38 39 41 42 43 44 44 44 44 44 44 44 44 43 43 43 43 44 44 44 45 45 45 45 44 44 45 47 47 47 46 46 45 44 44 44 45
56 55 52 51 53 54 53 51 50 51 54 55 54 53 53 52 53 53 53 54 54 52 53 54 55 56 52 46 45 47 47 45 44 44 42 40 39 36 30 27 29 32 35 35 34 33 32 33 34 35 37 39 41 42 44 45 45 45 45 45 46 46 46 46 46 46 46 47 47 47 47 46 46 46 47 48 49 49 48 48 48 47 46 45 45 45
56 56 55 55 56 54 52 52 52 53 53 53 55 55 56 56 55 55 56 56 56 55 53 53 53 53 53 51 49 49 48 46 46 47 47 46 47 46 42 39 37 38 39 39 38 38 37 36 36 37 38 39 41 42 43 45 46 47 48 48 48 48 48 48 49 49 49 49 49 49 49 48 48 49 49 49 50 50 50 49 49 48 46 46 45 45
54 56 57 58 56 55 55 55 54 54 54 54 55 56 57 59 58 58 59 58 60 58 53 53 54 51 55 57 52 49 48 48 48 49 50 50 52 53 51 48 45 44 45 45 45 44 44 43 41 40 41 41 42 43 44 46 48 49 50 50 50 50 51 51 52 53 53 53 52 52 51 51 51 50 50 50 50 50 49 48 47 46 46 45 45 45
51 53 55 55 56 56 56 56 56 56 56 55 56 56 58 59 60 62 62 62 64 60 52 54 55 52 58 60 53 51 52 52 51 51 52 52 54 56 55 54 54 51 50 50 50 49 48 47 45 43 41 41 42 43 44 46 48 50 51 51 51 51 51 52 53 54 54 54 54 54 54 53 53 53 52 50 49 48 47 46 46 45 45 45 45 46
48 49 51 52 54 56 57 58 58 57 57 56 56 57 59 60 62 65 66 65 66 61 56 58 59 58 62 61 55 55 55 53 53 54 55 54 56 58 58 59 61 60 58 56 54 53 51 49 49 48 45 44 44 43 43 44 46 48 51 52 52 53 53 54 54 54 54 54 54 54 55 54 54 53 53 51 48 47 46 46 46 45 45 46 47 47
48 47 48 49 49 51 54 57 58 59 59 59 59 59 59 61 64 66 66 66 66 63 61 62 64 66 67 62 58 57 55 55 56 56 56 56 57 58 59 62 64 65 65 63 62 60 56 53 52 52 51 49 48 48 47 45 46 46 47 50 52 54 55 56 56 56 55 54 53 53 53 53 52 51 51 50 48 46 46 46 46 46 46 47 47 48
53 51 50 51 52 51 52 54 55 57 59 61 61 60 61 62 63 64 64 65 66 65 65 66 68 70 69 65 62 59 57 58 59 59 59 60 61 62 63 64 64 65 67 66 65 65 63 60 56 54 54 54 55 55 54 52 50 49 49 49 51 53 55 57 58 59 59 56 54 53 52 51 51 50 49 48 47 46 45 45 45 46 47 47 47 49
60 59 57 58 58 56 56 56 56 56 57 59 61 62 63 62 60 60 61 62 64 66 68 70 72 72 70 68 66 62 61 61 61 63 63 64 66 66 66 67 66 66 68 68 67 67 67 64 58 52 49 49 53 55 57 59 58 57 56 55 55 55 56 57 59 61 61 60 58 55 53 51 51 50 49 48 47 47 47 48 48 48 47 47 48 49
64 67 65 64 64 62 62 62 61 61 61 61 62 62 60 59 58 60 62 62 62 65 68 70 72 72 70 70 68 64 63 63 62 63 65 67 70 69 68 70 69 69 71 72 71 69 66 61 55 50 44 42 48 52 55 59 60 61 61 60 60 60 59 59 60 62 63 62 61 58 56 54 53 52 51 50 49 50 50 50 50 50 50 50 50 50
66 68 69 68 68 67 66 65 65 66 67 66 63 61 59 59 59 59 60 61 61 64 67 68 70 71 71 72 70 66 64 64 63 64 66 67 69 70 69 71 73 74 74 73 69 64 60 55 50 50 51 51 53 56 55 57 60 62 63 64 64 64 63 63 64 65 65 64 63 62 60 58 56 54 53 52 52 52 53 53 53 52 52 52 53 53
66 68 70 70 70 70 68 68 69 69 69 66 63 63 61 60 60 59 60 61 61 62 64 63 63 68 72 74 73 69 66 67 67 68 69 69 70 71 72 73 74 75 75 72 66 58 54 52 48 52 61 63 62 61 58 56 57 59 61 64 66 66 66 66 67 68 67 66 65 65 64 62 60 58 55 53 54 55 55 55 55 54 54 55 56 56
65 65 67 68 70 70 69 71 73 70 67 64 63 63 63 62 63 64 64 64 62 62 63 64 66 68 71 72 73 71 69 68 68 68 69 69 69 69 70 70 71 71 71 69 64 57 53 55 57 59 66 69 69 66 61 57 55 54 57 60 64 67 67 67 68 68 68 66 66 67 67 66 64 61 58 57 58 59 59 58 57 57 57 58 59 59
64 63 65 66 67 71 72 71 70 67 64 63 63 61 61 61 62 63 63 61 59 62 65 69 71 70 68 66 66 67 67 66 65 65 65 64 64 64 65 66 68 69 68 66 66 64 60 61 64 65 66 68 68 66 61 55 51 50 53 56 59 63 66 67 68 69 70 69 70 71 71 70 67 64 63 63 63 62 62 61 61 61 61 62 62 62
68 66 66 66 69 73 73 69 66 65 64 63 63 60 57 56 56 58 61 59 59 67 71 71 73 75 72 66 65 66 68 68 67 65 65 63 61 61 62 65 68 69 68 68 68 69 68 67 67 66 65 64 64 64 61 56 50 48 50 54 58 60 62 64 67 69 71 73 73 74 74 73 72 69 67 66 65 65 65 65 65 65 67 67 66 65
72 72 72 73 74 74 72 69 70 71 71 70 71 69 64 61 60 62 68 69 70 75 78 77 79 81 78 73 71 69 66 66 67 65 64 64 64 63 62 64 66 68 68 69 69 69 70 69 67 66 66 64 64 65 64 60 54 51 50 52 55 58 60 62 65 67 69 71 74 75 76 75 73 72 70 68 68 68 67 67 67 69 70 70 70 69
73 74 74 74 75 74 73 73 74 75 75 75 75 73 72 72 71 74 78 78 77 77 75 75 77 78 75 71 68 65 58 56 59 61 64 68 70 71 70 69 69 69 69 69 69 71 71 71 70 70 70 69 68 68 67 65 61 57 56 55 55 56 57 59 61 65 67 68 70 73 75 75 74 73 72 72 71 71 70 70 70 71 72 72 72 71
74 73 71 70 72 74 75 75 74 73 73 73 73 71 71 72 71 73 74 73 74 73 71 74 79 79 76 73 70 69 65 61 61 65 72 75 77 79 80 78 77 77 77 77 78 80 80 81 80 79 79 79 78 76 75 72 69 65 61 60 59 57 56 56 58 62 65 67 68 70 73 75 75 74 74 74 74 74 73 73 72 72 71 71 72 72
71 71 69 68 68 70 73 74 74 72 70 70 70 69 69 69 69 70 71 72 75 76 75 78 81 80 76 74 73 71 71 70 70 74 79 80 81 83 84 84 84 84 85 86 86 87 87 87 87 86 85 84 83 83 82 79 77 74 69 64 61 59 58 58 59 61 63 65 65 66 67 69 70 70 70 71 71 72 72 71 71 70 69 69 71 71
65 68 67 66 65 65 67 69 69 70 69 70 70 70 70 71 71 72 72 73 75 76 77 78 77 76 73 71 72 72 71 72 73 74 78 79 81 82 83 84 85 86 86 87 87 87 88 88 88 87 86 83 80 79 79 78 77 77 76 72 68 66 65 66 67 68 68 68 68 68 68 68 68 68 67 67 66 66 66 67 69 69 69 69 70 71
66 69 70 69 68 66 64 65 67 68 71 72 73 73 72 72 73 73 75 77 77 77 79 77 75 76 74 71 71 70 68 69 70 70 72 74 75 77 79 80 81 82 83 84 85 87 87 87 87 87 87 86 82 77 74 74 74 76 78 78 77 76 76 77 77 78 78 78 78 78 79 79 78 76 74 71 68 65 64 64 66 68 69 70 70 72
69 71 71 70 70 69 68 69 70 71 73 73 74 74 74 75 76 77 80 81 78 77 78 77 76 77 76 72 71 70 70 70 70 70 70 70 71 74 76 78 80 80 80 80 81 83 85 85 85 85 85 86 85 82 77 75 75 77 79 80 82 83 84 85 84 85 86 85 84 82 82 83 83 84 83 81 78 73 69 66 65 65 66 67 69 72
69 71 72 72 72 72 71 71 71 72 73 74 74 74 75 76 78 79 81 80 78 79 80 80 79 80 79 78 76 75 75 76 74 74 73 73 72 72 74 76 78 79 79 78 78 78 80 82 83 84 85 84 84 83 81 77 75 75 77 79 80 82 83 83 83 83 84 84 82 79 77 77 79 81 82 82 81 80 78 75 72 70 67 65 66 67
67 70 71 71 73 73 72 72 72 72 72 73 74 75 76 78 78 78 77 76 77 78 79 77 77 77 79 80 79 78 77 76 76 76 76 75 74 73 74 76 78 79 80 79 79 78 78 80 81 82 84 84 83 81 80 78 75 73 73 75 76 77 78 79 79 79 78 78 77 75 73 73 75 77 77 77 78 80 80 80 79 77 73 70 68 67
67 69 70 71 73 74 72 71 70 68 68 71 73 74 74 73 71 70 71 72 73 75 76 76 76 77 78 79 80 80 79 78 77 77 76 76 76 76 76 76 77 78 79 78 78 78 78 78 78 78 78 79 79 79 79 78 76 73 70 69 70 72 73 74 75 75 75 75 75 74 72 72 73 75 76 76 77 77 77 78 78 79 78 76 74 74
68 70 71 70 72 74 71 68 67 66 69 71 69 67 66 65 65 67 69 69 68 69 72 74 77 79 79 77 76 75 76 76 77 78 76 75 75 75 73 72 72 73 74 75 76 75 74 73 73 73 74 74 75 77 78 78 77 75 71 67 66 68 70 71 71 72 73 74 75 74 73 72 72 74 75 76 76 75 74 74 75 77 78 78 77 78
70 71 71 70 73 75 72 69 70 74 76 74 68 65 65 66 67 68 69 69 71 73 76 79 82 83 82 81 79 77 77 79 81 82 82 78 75 75 75 75 75 75 75 75 75 74 73 72 72 73 74 75 76 77 78 78 77 76 74 70 66 66 68 71 73 73 73 75 75 74 72 72 72 72 73 73 73 73 72 72 73 74 76 77 78 79
71 71 71 72 74 76 74 73 76 80 80 77 74 74 75 76 77 78 78 81 84 86 87 87 88 88 88 88 87 86 86 87 87 87 86 83 78 76 76 76 77 78 78 77 77 77 77 78 79 81 83 85 86 86 85 83 80 78 77 75 72 70 71 74 77 77 75 75 76 73 70 69 70 71 73 73 73 73 73 73 73 74 75 76 78 79
71 70 72 73 74 76 76 77 79 81 80 78 78 79 80 82 84 86 88 89 90 90 90 90 90 90 90 89 89 90 90 90 89 88 89 89 87 85 84 83 83 83 83 83 84 85 86 88 89 91 94 96 97 96 94 91 87 83 80 80 79 79 78 77 80 80 77 75 75 72 69 68 69 71 72 74 75 76 76 77 77 77 78 79 79 80
72 71 72 73 74 76 77 78 80 82 81 80 80 80 81 83 84 86 87 89 89 88 89 89 89 89 89 89 89 89 89 88 87 87 88 90 92 93 93 93 93 93 93 94 94 95 96 97 96 96 96 96 96 96 96 96 93 90 88 87 87 88 87 83 82 82 79 75 74 72 70 71 73 74 75 76 78 78 78 77 77 78 78 78 78 79
72 72 72 73 75 75 76 79 80 81 81 81 80 80 81 81 82 84 85 86 86 86 87 88 88 89 89 90 90 90 90 89 87 86 88 89 90 91 92 92 92 93 95 97 98 98 97 95 92 89 86 85 85 86 88 90 91 91 91 91 91 91 90 86 84 84 81 77 76 76 74 74 75 76 77 78 79 78 76 74 73 72 72 72 73 75
71 71 71 72 73 73 74 77 79 79 80 80 79 79 80 80 81 83 84 86 86 86 86 87 87 88 89 89 90 91 90 90 88 86 86 86 86 85 84 84 85 85 86 87 88 88 87 85 83 81 80 78 77 76 77 78 80 80 80 81 82 83 83 82 82 82 81 79 78 79 77 76 75 76 77 77 77 76 74 71 69 67 66 67 70 74
70 70 70 71 72 73 73 76 78 79 79 79 78 78 79 80 81 82 83 85 85 84 83 84 85 86 87 88 89 90 89 89 88 86 83 81 81 79 76 75 74 73 74 75 76 76 76 76 76 76 75 74 73 71 71 71 71 71 71 71 74 76 76 75 74 76 77 77 77 76 76 75 74 75 75 75 75 74 72 69 67 66 66 67 69 74
69 69 70 71 71 72 73 76 78 79 79 78 78 77 77 79 81 82 83 84 82 81 81 82 83 84 85 86 87 88 88 88 88 88 86 85 84 84 82 80 78 76 74 73 72 71 70 70 71 72 72 73 72 71 71 71 70 70 70 70 70 72 73 72 71 71 73 73 73 74 75 75 75 74 74 73 74 73 72 70 68 67 67 68 70 72
68 68 69 70 71 72 73 75 77 79 79 78 76 75 76 78 79 79 79 79 77 77 77 77 78 79 81 82 83 84 85 85 85 85 85 85 85 87 87 88 89 88 87 85 82 79 76 73 70 70 71 73 74 74 73 73 72 71 71 71 72 74 76 77 76 76 76 76 76 77 78 79 78 77 75 73 73 73 72 70 69 68 67 68 69 70
67 68 69 70 70 71 72 74 76 78 76 73 71 71 71 71 72 72 71 71 71 71 72 73 74 76 77 78 80 81 81 81 81 81 82 83 83 84 85 87 88 89 90 91 92 92 91 88 85 81 78 76 76 76 77 77 76 75 75 77 80 83 85 86 86 86 85 83 82 82 84 84 84 82 79 75 73 73 72 70 70 69 69 69 69 69
67 67 67 68 68 68 70 72 72 72 70 66 65 65 64 63 64 65 67 68 68 68 70 72 74 74 76 77 77 78 79 79 79 80 81 81 82 82 83 85 86 87 88 89 90 92 94 96 97 96 94 91 90 88 88 89 88 86 86 88 92 95 97 98 98 98 96 91 87 85 87 88 88 87 85 82 78 75 73 72 71 70 70 70 70 70
64 62 62 65 65 65 67 67 66 65 63 61 60 61 61 61 61 63 65 66 67 68 69 72 73 73 73 74 75 76 76 76 77 78 79 81 81 82 83 84 85 86 87 88 89 90 92 94 96 97 99 100 101 103 104 105 105 104 102 102 103 105 107 107 107 106 104 100 94 89 88 90 90 90 90 88 84 79 77 76 74 70 70 70 70 70
58 56 59 62 62 62 63 60 59 60 59 57 58 59 60 61 61 62 64 65 66 67 69 70 71 71 71 72 73 73 74 74 76 77 78 80 81 81 82 83 84 85 86 87 87 88 90 92 93 94 95 96 98 101 104 107 109 110 110 109 110 112 114 115 114 112 108 104 99 95 94 95 95 94 93 91 88 86 83 81 78 75 72 71 71 71
53 54 57 58 58 60 60 55 54 58 58 57 59 60 60 61 61 62 64 65 66 67 68 68 69 69 69 70 71 72 73 74 75 77 78 79 81 81 82 83 83 84 85 86 86 87 88 90 91 92 93 94 94 95 98 100 102 103 105 106 108 111 113 115 116 116 114 110 105 100 99 101 102 100 97 94 91 89 87 85 82 80 77 74 73 74
52 54 57 56 56 59 59 54 54 58 58 57 59 61 61 62 62 62 62 63 63 64 65 66 67 68 68 70 71 73 74 75 76 77 78 79 80 81 81 82 83 83 84 84 84 85 86 88 89 90 91 91 91 92 94 95 96 97 99 100 102 104 106 108 110 112 113 113 111 106 104 104 105 105 103 100 97 95 93 90 88 87 84 80 78 78
53 56 56 55 57 58 57 55 55 57 58 58 58 60 61 61 61 61 61 61 61 62 63 64 66 67 69 70 71 73 74 74 75 76 77 78 79 79 80 80 81 81 81 81 81 82 83 84 85 86 88 88 89 90 91 92 93 94 95 96 98 101 102 103 104 106 108 109 110 110 108 107 107 107 107 105 104 102 100 97 96 95 94 90 85 83
52 54 53 55 59 58 56 54 55 57 60 59 58 59 60 60 60 60 60 60 61 62 63 63 64 64 65 67 68 70 71 72 73 74 76 77 77 78 79 79 80 80 79 79 80 80 81 82 82 83 84 85 85 87 88 89 90 90 91 93 95 98 99 100 101 103 104 105 106 108 110 111 112 112 111 109 107 106 105 103 100 101 102 98 92 89
52 53 53 55 57 57 55 54 54 57 59 57 56 57 58 58 58 59 59 59 60 60 61 62 62 62 62 63 66 69 71 72 73 75 76 77 77 77 78 79 79 79 78 78 79 79 80 80 81 82 82 82 82 83 85 86 87 87 88 90 92 95 97 98 99 100 101 101 102 104 107 110 113 116 117 116 114 113 112 110 108 106 106 102 95 91
Wind_Direction
274 274 275 278 284 288 288 283 279 278 278 278 280 280 282 282 284 287 289 289 289 286 283 284 285 285 287 288 288 288 289 291 295 296 291 287 285 285 285 285 283 281 279 277 275 274 274 273 273 273 272 272 274 275 276 276 277 276 274 273 272 272 271 270 271 270 269 267 266 266 265 265 263 262 262 263 266 268 270 272 274 275 274 272 270 269
275 275 277 281 285 285 281 279 279 279 279 278 279 280 281 282 285 287 287 287 287 283 284 287 286 284 286 287 287 290 290 292 297 297 292 287 286 289 291 289 285 282 279 276 273 272 272 271 270 270 270 272 274 276 277 278 278 277 274 273 272 271 271 271 270 269 268 266 265 264 263 263 263 264 265 267 269 271 272 274 275 275 273 271 269 269
275 276 279 281 281 279 279 279 280 279 278 278 279 280 281 283 285 285 284 284 283 282 284 287 287 285 285 286 287 289 292 295 296 293 291 291 293 295 293 290 286 282 280 278 276 274 272 272 271 272 272 273 274 276 278 279 277 276 275 273 271 270 269 268 267 267 266 265 264 264 264 265 266 267 269 270 271 273 275 276 275 273 271 270 268 268
274 276 278 278 278 279 280 279 279 278 278 279 279 280 281 284 285 283 283 282 281 282 284 286 286 284 285 286 286 289 293 296 293 289 290 295 299 300 294 290 284 281 282 281 279 276 274 273 272 272 272 272 272 274 276 275 272 271 270 269 268 267 267 267 267 267 266 264 264 266 267 267 268 268 269 270 273 275 276 274 272 270 269 268 268 269
272 274 276 277 278 279 278 277 277 277 277 278 278 279 280 282 282 281 282 283 282 282 283 286 284 280 284 285 285 290 293 291 286 283 288 295 299 300 296 290 285 283 283 283 281 277 273 271 269 269 270 270 270 270 270 270 268 268 268 267 267 267 268 268 268 267 266 265 265 266 267 267 268 268 268 270 274 275 274 272 271 271 270 270 271 272
269 272 275 276 276 275 275 275 276 275 277 278 277 276 277 278 278 279 282 283 284 283 284 285 282 277 280 283 286 292 292 287 282 281 288 294 295 295 293 290 291 291 289 288 285 279 276 275 272 271 270 270 271 270 270 269 268 269 269 269 269 268 268 268 268 267 266 266 265 265 266 267 267 267 268 271 272 272 271 272 274 275 276 275 274 273
270 272 274 273 273 272 273 274 275 275 275 275 274 273 274 274 276 277 279 281 282 284 284 283 281 277 274 277 285 291 290 284 281 284 290 292 291 291 288 287 290 291 292 294 291 283 280 278 277 277 277 275 275 273 272 271 270 269 269 269 269 268 266 266 266 266 265 265 265 265 266 266 267 268 269 270 269 270 271 274 276 278 279 278 276 274
272 272 271 271 271 271 271 273 274 273 273 273 273 272 272 272 273 274 275 277 279 281 281 280 281 281 277 278 284 286 284 283 286 292 293 292 291 287 281 280 284 286 287 291 294 291 286 282 279 279 279 279 278 276 275 273 271 269 268 268 267 266 265 264 264 264 264 264 264 265 265 266 267 269 269 269 270 271 273 275 277 278 279 278 276 274
270 269 269 269 269 269 271 272 271 270 270 272 272 271 271 270 270 271 272 274 276 277 276 276 279 283 282 282 286 284 283 287 292 294 295 296 294 288 283 283 286 286 285 288 291 292 290 288 285 283 281 279 278 276 275 274 272 270 268 267 266 266 266 265 264 264 264 265 265 265 266 267 268 268 268 269 270 272 273 275 276 277 278 277 275 273
268 268 269 269 269 270 271 270 269 269 269 270 271 271 271 271 271 272 271 272 273 273 272 274 279 283 283 281 282 282 284 288 290 291 294 297 295 292 291 292 291 289 289 290 290 289 288 287 287 287 284 282 281 278 276 274 272 270 268 268 268 268 268 268 268 268 267 267 267 267 268 268 267 267 268 269 270 271 272 273 274 275 275 274 272 271
267 266 267 268 270 271 271 270 269 270 270 270 270 270 271 272 272 272 271 271 271 270 272 276 279 282 281 279 280 282 283 284 285 289 293 295 294 293 294 295 293 290 290 291 290 289 287 286 287 288 288 286 284 282 279 276 273 272 271 270 270 269 268 269 269 269 269 270 270 270 270 270 270 270 270 270 271 272 272 273 273 272 271 271 270 270
267 267 267 267 268 269 269 270 269 269 270 270 270 270 270 270 270 270 269 269 269 271 275 277 277 276 275 276 279 280 279 279 283 287 290 292 293 293 295 295 293 291 290 289 289 289 288 288 288 289 288 285 282 281 279 277 275 274 274 273 272 270 268 267 267 268 269 270 270 271 271 272 272 272 272 272 272 273 274 274 273 273 272 271 269 269
266 267 268 268 269 269 269 269 269 268 269 269 270 270 270 269 269 269 269 269 270 274 276 275 274 271 269 272 273 273 274 278 281 284 286 289 290 291 293 294 293 293 292 290 288 287 285 285 286 287 286 283 280 277 275 274 274 275 275 275 274 272 270 268 267 266 267 267 268 269 270 270 270 271 271 272 273 273 273 273 273 272 271 269 268 267
266 266 269 271 271 270 269 269 269 268 268 268 269 270 270 269 269 268 269 270 272 274 274 271 270 268 268 269 270 271 274 276 277 279 282 285 286 287 288 289 290 292 293 294 293 290 286 283 281 281 281 280 278 275 272 271 271 272 274 275 276 275 273 272 270 268 267 266 265 266 266 267 267 267 268 269 270 271 271 271 272 271 270 268 268 267
271 268 269 271 271 271 271 271 270 269 267 268 269 271 270 270 270 271 271 271 272 272 270 268 266 267 270 272 273 273 274 275 275 277 279 282 283 284 284 284 285 288 290 293 293 292 291 287 283 278 275 275 276 275 272 271 270 271 272 273 274 275 275 275 274 272 270 267 265 264 263 263 263 264 264 266 267 268 269 269 269 269 268 268 267 266
275 272 271 272 272 272 272 272 272 272 270 268 268 270 271 272 274 274 273 272 271 269 267 266 266 267 270 271 271 272 272 272 273 275 278 281 282 282 283 283 284 286 287 288 288 289 289 290 289 284 277 270 269 270 270 271 271 272 272 272 272 272 272 273 273 272 271 269 267 264 261 260 260 261 262 264 265 267 267 268 268 268 267 267 266 265
275 274 274 275 275 274 272 273 274 276 276 273 271 272 274 275 274 273 273 272 270 268 267 266 266 267 267 267 268 268 268 269 270 273 276 278 279 281 282 283 284 285 286 286 287 287 288 289 290 287 279 266 264 264 263 264 266 267 269 270 270 270 271 271 271 271 271 270 269 265 262 260 260 260 261 263 264 265 267 268 268 268 268 268 267 267
275 275 274 275 276 275 274 274 274 275 277 278 278 278 279 278 276 275 275 274 272 270 269 268 267 267 266 266 267 266 266 268 269 270 271 272 275 277 278 280 281 283 284 285 286 287 289 291 289 286 281 275 273 271 266 263 262 262 264 266 267 268 268 269 269 270 270 270 269 267 265 263 263 262 263 263 264 266 267 268 268 268 268 269 268 268
277 276 274 273 274 274 274 274 274 274 274 276 278 279 278 277 276 274 273 274 273 272 272 270 267 266 266 267 269 268 267 268 268 269 270 270 271 272 273 274 276 278 280 281 283 286 288 288 286 283 283 282 280 278 275 270 266 262 262 263 264 265 266 266 266 267 268 268 268 268 267 266 265 265 265 265 266 267 268 268 267 267 268 268 268 269
278 277 275 272 272 272 272 272 273 274 274 275 275 274 273 272 272 272 272 272 272 271 271 271 269 266 266 268 270 271 270 269 268 268 269 270 271 271 271 272 272 273 274 275 277 278 280 282 281 280 282 282 282 281 279 275 269 263 260 259 261 263 263 263 263 263 264 265 265 265 265 265 266 266 266 267 268 269 270 269 269 269 268 268 269 270
277 277 276 274 272 271 272 273 273 273 272 273 272 272 272 272 270 269 267 265 266 270 274 277 277 274 270 266 266 269 272 273 271 270 270 271 271 270 269 269 270 269 269 269 270 270 271 274 276 277 278 280 281 282 281 278 272 264 258 255 255 258 260 261 261 261 262 262 263 264 264 264 265 265 266 267 268 269 270 271 272 271 270 269 270 270
275 275 275 274 272 272 274 275 273 271 270 271 271 271 271 268 263 262 264 262 266 274 278 280 280 279 275 270 267 268 271 274 274 272 270 270 270 270 268 265 264 263 263 264 266 267 267 268 269 271 273 276 279 280 280 279 274 265 259 254 252 252 255 259 262 263 263 263 263 264 264 264 265 265 265 266 268 269 271 272 272 272 272 272 271 271
276 275 275 275 274 274 273 272 271 271 270 270 270 270 270 266 261 263 268 270 272 277 279 279 278 278 278 276 274 273 274 274 274 272 269 268 267 267 266 262 261 261 262 264 265 265 265 265 266 268 270 272 275 278 279 278 275 268 261 256 253 252 254 259 263 264 265 265 265 266 266 265 265 265 265 266 267 269 270 271 271 272 272 273 273 272
276 276 277 277 277 275 273 271 271 271 272 272 271 271 270 269 267 267 271 274 276 276 276 276 276 276 278 278 276 274 271 268 268 269 270 270 269 269 267 264 263 262 263 264 264 265 266 267 268 269 271 272 273 275 277 276 275 271 266 262 260 258 258 260 261 262 263 263 264 265 266 267 267 266 267 267 268 268 268 269 270 271 272 272 272 272
275 276 277 277 277 276 275 273 272 273 273 273 272 272 271 271 271 270 271 272 272 272 271 271 271 273 277 277 276 273 269 264 261 263 267 269 271 272 271 269 267 265 265 266 267 268 269 270 271 271 272 274 274 275 275 274 272 270 267 264 262 261 260 260 260 260 260 260 260 261 263 265 267 268 269 270 270 270 269 269 270 271 272 272 271 271
275 275 275 275 275 275 275 274 273 273 273 272 271 271 270 270 270 271 271 270 270 271 272 271 272 275 276 277 276 275 272 268 264 263 265 267 268 270 271 272 271 270 270 271 271 272 273 273 274 274 275 275 275 275 275 274 272 269 266 263 260 259 259 261 261 261 261 261 260 259 260 262 264 265 267 268 269 270 271 270 270 271 271 271 271 270
274 273 272 271 271 272 273 273 272 271 271 270 270 270 270 271 271 272 271 270 271 273 272 271 274 276 276 276 276 276 275 274 271 269 269 268 268 268 269 270 271 271 272 272 272 272 272 273 274 275 276 276 275 274 273 272 269 266 264 262 260 259 259 261 263 265 265 265 264 264 264 265 264 264 264 265 266 267 268 268 268 268 268 268 269 270
272 272 272 272 271 270 270 270 270 270 269 270 270 270 270 271 271 271 271 272 274 274 273 273 274 275 275 276 276 277 277 276 275 274 272 271 271 271 271 271 271 271 272 272 273 272 272 272 273 273 273 274 274 273 270 269 267 264 262 261 261 261 262 262 264 266 267 268 267 268 268 268 268 267 266 266 266 266 265 264 264 264 264 265 266 267
274 273 274 274 273 272 270 270 271 272 272 271 271 271 271 270 270 270 271 273 273 271 272 275 275 275 275 274 273 274 273 272 272 272 272 273 273 273 274 274 274 274 274 274 274 275 275 275 274 274 273 273 273 272 270 269 268 266 265 263 263 263 264 265 265 266 267 268 269 269 268 268 268 267 267 267 267 267 265 264 263 263 263 263 263 263
275 275 276 276 275 274 274 274 274 273 273 272 271 271 271 271 271 271 272 271 271 271 273 275 276 276 276 274 272 271 270 270 271 271 272 273 273 274 275 275 275 275 275 275 274 274 274 274 274 274 273 273 272 271 271 270 269 268 267 266 265 264 265 265 265 265 266 268 269 268 267 266 265 265 265 265 265 265 265 264 263 263 263 263 263 263
275 275 276 276 275 275 275 276 276 276 275 274 272 271 271 272 273 273 272 271 271 271 272 272 274 275 275 276 275 273 272 272 273 274 274 274 273 273 273 273 273 273 274 274 274 273 272 271 271 271 272 272 272 272 272 271 270 269 267 266 266 265 265 265 265 265 266 267 268 267 266 264 263 263 262 262 262 263 264 264 264 264 262 261 260 261
272 273 274 275 275 275 276 277 279 279 276 273 274 276 277 276 274 273 273 273 273 273 272 272 273 274 275 276 276 275 275 276 277 279 279 277 274 273 271 271 271 270 271 271 271 271 270 270 270 270 270 271 271 272 272 272 272 270 268 266 265 264 264 264 264 265 265 266 267 267 266 264 262 261 260 260 260 261 262 264 264 263 262 261 260 260
272 273 274 274 274 274 274 275 275 273 268 268 274 278 275 271 269 270 271 271 271 273 274 275 275 276 276 276 274 274 276 278 280 281 280 277 273 270 268 267 266 266 266 266 266 266 268 269 271 271 271 271 271 272 272 272 272 270 268 266 265 264 263 263 264 264 265 265 265 265 264 263 261 259 259 258 259 260 261 261 262 262 262 262 262 262
273 273 273 273 273 273 273 271 269 266 264 267 271 269 265 265 265 266 266 266 268 271 273 274 274 275 275 274 272 272 273 276 278 279 277 275 270 266 264 264 264 264 265 264 262 262 264 268 270 272 272 272 272 271 271 271 270 270 268 266 266 266 264 262 262 264 265 265 263 263 262 261 260 259 258 258 258 259 259 260 260 261 262 262 263 263
273 273 274 273 273 274 274 272 269 268 269 271 270 266 265 265 266 266 267 268 270 272 274 274 274 273 273 273 273 272 273 273 274 275 274 272 268 264 262 262 262 263 263 263 262 262 265 267 269 271 273 274 274 273 271 270 269 268 267 265 265 268 268 265 263 264 266 265 262 260 259 259 259 260 260 259 259 259 260 260 260 261 262 263 263 263
273 273 272 272 273 273 273 272 272 272 273 273 272 271 270 269 269 270 272 272 273 274 275 276 276 276 276 276 275 275 275 275 274 274 272 270 268 267 266 264 264 264 265 265 265 266 268 270 271 273 274 274 274 272 270 268 267 266 265 264 264 266 269 269 266 264 265 264 260 257 257 258 260 261 261 262 263 262 260 260 260 261 261 261 262 263
272 272 272 272 272 272 273 273 273 273 273 273 273 273 273 273 273 274 275 275 276 276 276 277 277 278 278 278 278 278 277 276 276 275 274 272 271 271 272 271 271 270 270 270 270 270 271 272 273 274 274 273 272 270 268 267 265 264 264 263 264 265 267 268 266 264 265 263 257 255 258 261 262 262 262 262 263 262 260 259 259 260 260 261 261 262
272 272 272 272 272 272 273 273 273 274 274 275 275 275 275 276 276 277 277 277 277 278 278 279 279 280 279 279 279 278 277 277 276 276 276 275 275 275 275 276 276 276 275 274 274 274 273 273 273 273 272 270 269 268 267 266 265 264 263 263 263 265 266 266 264 263 263 261 256 255 258 261 260 260 260 260 261 261 260 260 259 260 261 262 263 263
272 272 272 272 272 273 273 274 274 275 276 277 277 278 278 279 279 279 280 280 279 280 281 281 281 281 280 280 279 278 278 277 277 276 276 276 276 276 276 276 276 276 276 276 275 275 274 273 272 271 269 266 265 265 265 264 264 263 263 263 264 264 264 264 263 262 262 261 258 258 260 259 257 255 256 257 259 260 259 259 260 261 263 265 267 266
272 272 273 273 273 274 274 274 275 275 276 278 279 279 280 281 281 280 281 281 281 281 281 280 280 279 278 278 278 277 277 276 276 275 273 272 272 272 271 271 271 271 271 270 269 268 267 267 267 266 265 262 260 260 261 263 263 264 265 265 264 263 262 262 262 261 261 260 259 259 259 257 254 253 253 254 256 257 257 258 259 261 264 268 270 268
272 273 273 273 274 275 275 275 276 276 277 278 279 280 281 281 280 280 281 281 281 280 279 279 278 278 277 276 276 276 275 275 275 274 273 272 270 269 267 266 266 265 265 264 263 261 259 258 259 259 259 258 257 257 258 259 260 262 264 264 263 262 260 259 258 258 258 259 259 260 259 257 254 253 253 254 254 254 255 256 257 259 263 268 268 266
274 273 273 274 275 276 276 276 276 276 277 279 279 280 280 280 280 280 280 280 279 278 278 277 277 277 276 276 275 276 276 276 276 276 275 274 273 271 270 269 267 267 265 264 263 262 259 257 256 256 255 255 255 255 256 256 255 256 257 258 259 260 259 258 258 259 260 261 263 264 263 261 259 256 256 256 255 254 254 256 258 260 263 266 266 264
275 274 275 276 276 276 276 275 275 277 279 279 279 280 280 280 280 280 279 278 278 278 277 277 276 276 276 276 277 277 277 277 277 277 277 276 275 274 273 273 271 270 269 268 266 265 263 261 260 259 258 257 256 256 257 258 257 256 256 257 259 260 261 261 262 263 264 266 267 268 266 265 263 260 258 258 257 256 256 257 259 261 262 264 265 264
275 276 277 276 275 275 275 275 277 279 281 281 281 281 280 279 279 279 278 277 277 277 276 276 275 276 277 278 279 279 279 279 279 278 278 277 276 275 275 274 274 273 272 271 270 268 267 265 264 262 261 260 259 259 260 261 261 260 259 261 263 264 265 265 266 266 267 268 269 268 264 263 263 261 260 260 260 259 258 258 259 259 260 261 263 263
276 277 278 276 275 275 276 277 280 281 282 282 282 281 280 278 278 277 277 277 277 276 276 277 277 278 279 280 280 281 281 280 280 279 279 278 277 277 276 276 275 275 274 273 272 271 270 269 268 266 264 263 262 262 262 263 263 263 262 262 264 265 266 267 268 269 269 268 266 264 260 258 259 260 259 258 258 258 258 258 258 258 259 260 261 262
277 278 277 277 277 277 278 281 283 283 282 283 281 280 279 279 278 276 276 277 277 278 278 279 280 280 280 280 281 281 281 281 281 281 280 280 279 279 278 278 277 277 276 275 274 273 272 272 271 269 268 266 265 265 264 264 265 264 264 263 263 263 264 265 266 267 267 267 265 262 259 258 260 261 260 257 256 256 256 257 257 259 261 262 262 261
278 277 276 277 279 279 280 282 283 282 282 282 281 279 279 279 278 278 278 279 279 280 280 280 280 280 280 281 281 281 281 282 282 282 282 281 281 281 280 280 279 279 278 278 277 277 276 275 274 273 271 270 268 267 267 266 266 266 265 265 264 264 263 263 263 263 264 264 264 262 260 258 259 260 260 258 256 255 255 256 257 259 263 265 264 263
280 278 278 279 280 280 281 281 281 280 281 280 279 280 280 279 279 280 280 280 279 279 280 280 280 281 281 282 283 283 284 284 284 284 284 284 284 283 283 282 282 281 281 280 280 280 278 277 276 275 274 273 271 270 270 269 268 268 267 266 265 264 263 263 262 262 261 261 261 261 260 259 258 258 258 258 257 257 257 257 258 259 262 265 265 263
282 281 282 284 282 280 280 282 281 281 279 278 279 281 281 280 280 280 279 280 280 280 280 281 281 282 283 283 284 285 285 286 286 287 287 287 287 287 287 287 286 285 285 284 283 283 282 281 279 278 276 275 274 272 271 270 270 269 269 268 267 265 264 263 262 261 260 260 259 258 258 257 256 256 256 256 256 257 258 259 260 261 262 265 264 262
284 283 284 284 283 282 283 283 283 282 280 280 281 281 280 281 281 281 281 282 282 283 283 284 284 284 285 286 286 287 288 288 289 290 290 291 291 291 291 291 290 289 289 288 287 286 285 284 283 281 279 277 276 274 272 271 270 269 269 269 268 267 266 264 262 260 259 259 258 257 256 255 254 255 255 255 256 257 257 259 260 262 264 265 264 260
284 284 285 285 285 285 284 283 283 283 283 284 283 282 282 283 283 284 285 285 286 286 286 286 286 286 286 287 289 290 290 291 291 291 291 292 292 293 293 293 292 292 291 290 289 287 286 285 284 283 282 280 278 277 275 273 272 271 270 270 269 268 267 266 264 262 260 259 258 257 256 255 254 254 255 256 257 258 258 258 259 260 262 263 261 257
Height
5798 5794 5792 5796 5800 5802 5800 5795 5791 5791 5790 5788 5786 5785 5785 5784 5784 5788 5790 5790 5788 5778 5773 5778 5777 5774 5776 5779 5781 5784 5786 5784 5784 5786 5786 5785 5784 5783 5783 5782 5782 5781 5782 5782 5781 5780 5778 5778 5776 5774 5773 5772 5773 5773 5773 5773 5773 5774 5773 5772 5773 5773 5773 5773 5774 5774 5774 5774 5774 5774 5775 5776 5776 5776 5776 5777 5778 5779 5779 5778 5779 5779 5778 5778 5778 5778
5793 5788 5789 5796 5798 5795 5791 5788 5787 5787 5785 5783 5781 5780 5780 5779 5781 5784 5784 5784 5783 5772 5767 5771 5769 5768 5772 5773 5775 5778 5780 5782 5781 5780 5779 5779 5780 5780 5779 5779 5778 5777 5776 5776 5776 5775 5773 5772 5771 5770 5769 5769 5769 5769 5769 5769 5769 5769 5768 5768 5768 5768 5768 5769 5769 5769 5769 5770 5770 5769 5770 5770 5771 5771 5772 5774 5774 5774 5774 5774 5774 5774 5773 5773 5773 5773
5787 5782 5788 5793 5790 5787 5785 5785 5784 5781 5780 5779 5778 5776 5774 5776 5777 5777 5778 5778 5776 5769 5765 5766 5762 5760 5766 5768 5770 5774 5775 5778 5779 5775 5773 5773 5775 5778 5776 5774 5773 5772 5772 5772 5771 5771 5768 5767 5766 5765 5765 5765 5765 5765 5765 5765 5765 5764 5764 5764 5764 5763 5763 5764 5764 5764 5765 5765 5765 5764 5765 5766 5766 5767 5769 5769 5769 5769 5770 5770 5769 5768 5768 5768 5768 5768
5779 5778 5785 5786 5782 5781 5781 5780 5778 5775 5775 5775 5774 5772 5770 5773 5772 5769 5769 5771 5771 5766 5762 5763 5758 5753 5758 5761 5763 5769 5772 5773 5774 5772 5770 5770 5771 5773 5772 5770 5769 5768 5768 5768 5767 5766 5764 5762 5762 5761 5760 5760 5760 5760 5760 5759 5758 5758 5759 5759 5759 5759 5758 5759 5759 5760 5760 5760 5760 5760 5761 5761 5762 5763 5764 5764 5765 5765 5765 5764 5763 5763 5762 5762 5762 5763
5773 5775 5779 5779 5777 5776 5774 5773 5772 5770 5770 5771 5770 5768 5767 5769 5767 5763 5763 5763 5764 5763 5761 5760 5754 5748 5752 5754 5757 5764 5768 5768 5768 5767 5768 5769 5768 5768 5767 5765 5765 5764 5763 5763 5763 5761 5759 5758 5757 5756 5755 5754 5754 5754 5754 5753 5752 5753 5754 5754 5754 5754 5754 5755 5755 5755 5755 5755 5756 5756 5756 5757 5758 5759 5759 5759 5760 5760 5759 5758 5757 5757 5757 5757 5758 5758
5768 5771 5773 5773 5772 5769 5767 5767 5766 5764 5765 5767 5765 5764 5764 5763 5761 5760 5759 5757 5756 5757 5758 5757 5750 5745 5747 5748 5750 5757 5761 5761 5761 5762 5765 5767 5767 5765 5763 5761 5760 5759 5758 5758 5758 5756 5755 5754 5752 5751 5750 5749 5749 5749 5748 5747 5747 5748 5749 5749 5749 5750 5750 5750 5750 5750 5750 5751 5751 5751 5752 5752 5753 5753 5754 5755 5755 5753 5752 5752 5752 5753 5753 5753 5753 5753
5764 5768 5768 5766 5765 5762 5761 5761 5761 5760 5759 5759 5758 5758 5759 5757 5756 5756 5755 5753 5751 5750 5751 5751 5747 5742 5743 5745 5748 5751 5752 5752 5753 5756 5761 5762 5762 5762 5761 5760 5758 5755 5754 5753 5754 5753 5751 5750 5749 5747 5746 5745 5744 5744 5743 5743 5743 5743 5743 5744 5744 5744 5745 5745 5745 5745 5745 5745 5745 5746 5746 5747 5747 5748 5749 5749 5747 5747 5747 5747 5747 5748 5748 5748 5747 5747
5761 5762 5761 5760 5758 5756 5755 5756 5757 5754 5751 5751 5753 5752 5752 5751 5751 5750 5749 5748 5747 5746 5745 5743 5741 5739 5738 5742 5746 5745 5744 5744 5746 5749 5752 5754 5755 5756 5757 5758 5756 5753 5751 5750 5750 5749 5748 5746 5745 5744 5742 5741 5740 5739 5739 5738 5738 5738 5738 5738 5738 5738 5739 5739 5739 5739 5739 5739 5740 5740 5740 5740 5741 5743 5743 5742 5741 5741 5741 5741 5742 5742 5742 5742 5742 5741
5754 5753 5754 5753 5751 5750 5751 5751 5750 5747 5744 5746 5747 5745 5745 5745 5744 5744 5743 5742 5741 5741 5739 5737 5738 5737 5736 5738 5740 5738 5737 5739 5740 5741 5743 5745 5746 5747 5750 5752 5752 5749 5747 5747 5746 5745 5743 5741 5740 5740 5739 5737 5736 5735 5734 5733 5733 5733 5732 5732 5732 5733 5733 5734 5734 5734 5734 5733 5734 5734 5734 5735 5736 5736 5736 5735 5735 5735 5736 5736 5736 5736 5736 5736 5735 5735
5747 5746 5747 5745 5744 5745 5746 5745 5743 5741 5741 5741 5741 5739 5739 5738 5738 5738 5737 5736 5736 5733 5732 5732 5735 5736 5733 5734 5735 5733 5733 5736 5735 5734 5736 5737 5737 5737 5740 5742 5744 5743 5741 5742 5742 5740 5738 5737 5736 5735 5734 5732 5731 5730 5730 5729 5728 5727 5726 5726 5726 5727 5727 5728 5728 5728 5728 5728 5728 5728 5728 5729 5729 5729 5729 5729 5729 5729 5730 5730 5730 5730 5729 5728 5728 5728
5740 5739 5739 5739 5739 5739 5739 5738 5737 5737 5736 5736 5735 5734 5733 5731 5731 5730 5729 5729 5727 5725 5729 5729 5731 5734 5727 5723 5730 5732 5731 5731 5730 5730 5730 5731 5730 5728 5730 5733 5734 5736 5735 5734 5734 5733 5732 5731 5730 5730 5728 5727 5726 5725 5724 5724 5723 5722 5720 5720 5720 5720 5720 5721 5721 5721 5721 5721 5721 5722 5722 5722 5722 5722 5722 5722 5723 5723 5723 5723 5723 5722 5722 5721 5721 5721
5733 5732 5732 5733 5733 5733 5732 5731 5732 5732 5730 5729 5729 5728 5726 5725 5724 5721 5719 5721 5717 5719 5728 5726 5725 5729 5719 5716 5726 5727 5725 5725 5726 5726 5725 5725 5723 5721 5722 5722 5723 5726 5728 5727 5726 5725 5725 5724 5723 5723 5723 5721 5720 5719 5719 5718 5717 5716 5715 5715 5715 5714 5713 5713 5713 5714 5714 5714 5715 5715 5716 5716 5715 5715 5715 5715 5716 5716 5716 5716 5715 5715 5715 5715 5715 5714
5726 5726 5726 5726 5727 5727 5725 5724 5724 5725 5724 5723 5722 5721 5718 5717 5716 5712 5710 5711 5710 5715 5723 5720 5718 5717 5711 5714 5721 5721 5721 5723 5722 5721 5720 5719 5718 5716 5715 5713 5711 5712 5714 5716 5718 5718 5719 5718 5716 5716 5716 5716 5715 5713 5712 5712 5712 5712 5711 5710 5710 5709 5708 5706 5706 5706 5706 5707 5707 5708 5708 5708 5708 5708 5708 5708 5709 5709 5709 5708 5708 5709 5708 5708 5707 5707
5719 5720 5721 5719 5720 5722 5719 5717 5717 5717 5717 5715 5715 5714 5711 5711 5708 5703 5704 5705 5705 5710 5713 5710 5708 5703 5702 5710 5716 5716 5719 5720 5717 5716 5715 5715 5714 5712 5711 5708 5704 5702 5701 5703 5704 5705 5709 5712 5711 5710 5708 5708 5708 5708 5707 5706 5706 5706 5706 5705 5704 5703 5702 5701 5700 5699 5698 5699 5699 5700 5700 5700 5700 5701 5701 5701 5701 5702 5702 5702 5702 5702 5701 5701 5701 5701
5709 5713 5716 5712 5712 5715 5713 5711 5710 5709 5709 5708 5709 5707 5703 5704 5701 5696 5698 5699 5698 5701 5700 5698 5697 5694 5698 5705 5710 5713 5715 5713 5711 5710 5710 5709 5708 5706 5704 5702 5700 5697 5695 5695 5693 5691 5693 5697 5700 5702 5702 5702 5701 5700 5701 5700 5699 5700 5699 5699 5698 5697 5696 5695 5694 5693 5692 5691 5691 5691 5691 5692 5692 5693 5693 5693 5694 5694 5694 5694 5694 5694 5693 5694 5694 5693
5699 5703 5709 5705 5704 5708 5707 5705 5704 5702 5701 5701 5702 5698 5696 5698 5696 5690 5689 5690 5690 5688 5687 5688 5687 5689 5696 5699 5703 5707 5708 5707 5705 5704 5704 5703 5699 5698 5696 5693 5693 5691 5688 5688 5688 5683 5682 5683 5684 5688 5692 5695 5695 5694 5693 5693 5692 5692 5691 5691 5690 5690 5689 5689 5688 5686 5686 5685 5684 5684 5684 5684 5684 5684 5685 5685 5685 5686 5686 5685 5686 5686 5686 5686 5686 5685
5690 5692 5700 5698 5695 5699 5699 5697 5697 5694 5692 5692 5692 5692 5691 5691 5689 5683 5678 5680 5681 5673 5675 5681 5679 5682 5689 5690 5696 5701 5700 5701 5701 5700 5699 5696 5691 5690 5688 5684 5683 5682 5680 5679 5678 5676 5674 5675 5675 5676 5679 5683 5686 5688 5687 5686 5685 5684 5683 5683 5682 5681 5681 5681 5679 5679 5678 5678 5678 5677 5676 5676 5676 5677 5677 5677 5676 5676 5676 5677 5677 5677 5677 5677 5677 5677
5681 5682 5691 5693 5687 5687 5689 5689 5688 5687 5684 5681 5682 5685 5685 5681 5679 5677 5670 5669 5670 5662 5663 5671 5672 5675 5679 5679 5688 5695 5694 5695 5696 5693 5692 5690 5686 5684 5682 5678 5674 5673 5672 5670 5669 5667 5665 5666 5667 5666 5668 5671 5674 5676 5678 5678 5677 5677 5676 5675 5674 5673 5673 5672 5671 5670 5670 5670 5670 5669 5669 5668 5668 5668 5667 5667 5667 5667 5667 5668 5667 5667 5668 5668 5668 5668
5674 5671 5679 5686 5680 5676 5680 5681 5679 5679 5676 5674 5675 5677 5676 5673 5671 5670 5664 5659 5659 5654 5652 5658 5661 5665 5670 5674 5681 5686 5689 5690 5687 5684 5682 5680 5678 5676 5673 5671 5668 5666 5664 5662 5661 5659 5657 5658 5659 5658 5657 5660 5661 5662 5666 5668 5669 5669 5669 5667 5666 5665 5665 5664 5663 5662 5661 5661 5661 5660 5660 5659 5659 5659 5658 5657 5657 5657 5658 5659 5658 5658 5659 5659 5659 5660
5667 5661 5664 5676 5675 5667 5670 5675 5671 5670 5670 5668 5667 5667 5667 5665 5663 5662 5657 5654 5652 5646 5643 5644 5645 5650 5663 5674 5676 5674 5676 5678 5676 5675 5672 5669 5667 5665 5663 5661 5660 5659 5656 5654 5653 5652 5651 5649 5650 5652 5650 5650 5650 5650 5653 5655 5657 5659 5660 5660 5659 5657 5656 5656 5654 5653 5652 5651 5650 5650 5650 5650 5650 5650 5650 5649 5649 5649 5650 5650 5649 5649 5650 5650 5650 5652
5659 5653 5650 5661 5666 5659 5662 5669 5666 5664 5663 5660 5657 5657 5657 5657 5656 5651 5647 5646 5645 5638 5634 5633 5629 5634 5652 5666 5670 5667 5663 5662 5664 5664 5662 5660 5657 5654 5653 5652 5650 5647 5645 5643 5643 5643 5644 5643 5643 5645 5643 5641 5640 5639 5640 5643 5645 5647 5648 5649 5650 5648 5647 5646 5645 5645 5644 5642 5641 5641 5642 5642 5642 5642 5642 5642 5641 5642 5642 5642 5641 5640 5640 5641 5642 5643
5651 5646 5641 5646 5653 5653 5657 5662 5659 5654 5653 5651 5648 5649 5651 5650 5648 5641 5634 5637 5639 5631 5627 5625 5616 5619 5638 5653 5659 5660 5656 5651 5652 5650 5649 5650 5648 5644 5643 5641 5637 5634 5633 5634 5635 5635 5635 5636 5635 5636 5635 5634 5632 5631 5632 5633 5635 5637 5637 5638 5639 5640 5639 5637 5636 5637 5637 5636 5636 5635 5635 5634 5634 5634 5634 5634 5633 5634 5634 5633 5633 5631 5630 5631 5633 5634
5641 5637 5632 5634 5640 5645 5650 5653 5649 5643 5643 5642 5639 5640 5643 5642 5641 5634 5625 5628 5629 5623 5620 5618 5606 5604 5624 5642 5646 5648 5649 5645 5641 5638 5635 5634 5633 5632 5630 5628 5625 5624 5625 5626 5628 5627 5626 5626 5626 5626 5627 5628 5627 5626 5626 5627 5628 5628 5629 5629 5630 5631 5631 5630 5628 5628 5629 5630 5630 5629 5629 5628 5628 5627 5626 5626 5626 5626 5625 5624 5623 5621 5621 5621 5622 5623
5631 5628 5626 5625 5627 5632 5638 5642 5640 5635 5634 5632 5629 5633 5633 5631 5632 5627 5620 5620 5617 5612 5614 5610 5597 5596 5612 5628 5634 5636 5639 5639 5635 5630 5621 5615 5615 5617 5618 5619 5619 5618 5619 5619 5618 5617 5616 5617 5618 5619 5619 5621 5621 5621 5622 5622 5622 5620 5620 5621 5621 5621 5621 5621 5620 5619 5619 5620 5621 5621 5620 5620 5620 5619 5618 5618 5618 5617 5616 5615 5613 5612 5612 5612 5612 5613
5623 5621 5620 5617 5615 5618 5624 5630 5630 5628 5626 5622 5620 5624 5622 5620 5621 5617 5615 5613 5604 5602 5608 5600 5588 5594 5605 5613 5619 5624 5626 5629 5629 5620 5607 5603 5605 5606 5606 5607 5609 5609 5609 5610 5609 5608 5608 5608 5609 5610 5610 5610 5611 5611 5612 5613 5614 5613 5611 5610 5611 5611 5611 5610 5611 5610 5609 5609 5610 5610 5610 5610 5609 5609 5610 5609 5608 5608 5607 5605 5605 5604 5604 5604 5604 5604
5614 5612 5613 5610 5606 5606 5611 5617 5620 5618 5615 5610 5610 5613 5613 5612 5611 5607 5606 5602 5592 5593 5598 5589 5581 5589 5599 5601 5603 5606 5607 5610 5613 5607 5600 5599 5600 5599 5597 5594 5594 5595 5595 5597 5598 5598 5597 5597 5597 5598 5599 5599 5599 5599 5600 5600 5601 5602 5602 5601 5601 5601 5601 5600 5601 5601 5601 5601 5601 5601 5601 5600 5599 5599 5600 5599 5599 5599 5598 5597 5597 5597 5597 5596 5595 5594
5604 5601 5603 5603 5599 5599 5601 5604 5608 5607 5601 5598 5599 5601 5602 5602 5602 5599 5593 5588 5587 5585 5582 5580 5581 5581 5587 5592 5590 5589 5590 5591 5594 5595 5592 5591 5590 5589 5589 5586 5584 5584 5584 5584 5586 5585 5585 5585 5584 5585 5585 5585 5586 5587 5587 5588 5589 5589 5590 5590 5591 5591 5591 5590 5590 5590 5590 5591 5592 5592 5592 5590 5589 5589 5590 5590 5590 5589 5589 5589 5589 5589 5589 5588 5587 5587
5595 5589 5593 5595 5591 5592 5594 5593 5595 5595 5590 5588 5588 5589 5592 5593 5592 5589 5582 5579 5582 5575 5564 5571 5578 5572 5574 5582 5578 5576 5579 5577 5578 5580 5578 5578 5578 5577 5576 5575 5574 5574 5574 5573 5573 5572 5572 5572 5572 5573 5573 5573 5573 5573 5574 5574 5575 5576 5577 5577 5578 5578 5579 5579 5579 5578 5578 5578 5579 5580 5580 5580 5579 5579 5579 5579 5579 5579 5579 5579 5579 5579 5579 5579 5579 5579
5584 5579 5585 5586 5580 5581 5583 5582 5585 5585 5580 5579 5578 5577 5580 5581 5581 5579 5574 5573 5573 5564 5556 5562 5566 5561 5564 5569 5566 5565 5567 5565 5565 5566 5565 5566 5567 5566 5565 5563 5561 5560 5561 5561 5560 5559 5558 5558 5558 5558 5559 5560 5560 5560 5561 5561 5561 5561 5562 5563 5564 5565 5565 5566 5566 5566 5565 5564 5565 5566 5567 5567 5567 5567 5567 5568 5568 5569 5569 5569 5569 5569 5569 5570 5570 5570
5574 5570 5576 5576 5568 5568 5572 5572 5574 5573 5569 5568 5567 5566 5567 5568 5570 5569 5566 5565 5563 5556 5554 5556 5553 5551 5551 5551 5553 5554 5554 5553 5554 5555 5555 5556 5555 5554 5554 5553 5550 5548 5547 5548 5548 5548 5547 5545 5545 5544 5544 5545 5546 5546 5547 5548 5548 5548 5547 5548 5549 5550 5551 5552 5553 5553 5553 5552 5551 5552 5553 5554 5554 5555 5556 5556 5557 5557 5557 5557 5557 5558 5559 5560 5561 5560
5567 5562 5566 5565 5556 5555 5562 5563 5562 5560 5558 5554 5553 5555 5557 5558 5559 5558 5555 5556 5553 5548 5547 5547 5544 5542 5540 5537 5539 5541 5541 5542 5542 5542 5544 5544 5544 5544 5542 5540 5539 5537 5535 5535 5534 5534 5534 5534 5533 5532 5532 5532 5532 5533 5534 5535 5536 5536 5535 5535 5535 5536 5537 5538 5539 5540 5540 5539 5539 5539 5540 5541 5542 5542 5543 5544 5544 5545 5545 5545 5546 5547 5549 5550 5550 5550
5561 5555 5556 5556 5544 5543 5554 5555 5551 5550 5545 5538 5540 5547 5550 5549 5547 5545 5545 5546 5542 5537 5537 5538 5534 5533 5532 5530 5528 5527 5527 5530 5529 5529 5532 5532 5531 5531 5530 5528 5528 5526 5525 5524 5522 5521 5521 5522 5522 5522 5522 5522 5521 5521 5522 5523 5524 5524 5524 5524 5523 5523 5524 5525 5526 5527 5527 5527 5527 5527 5528 5529 5530 5530 5531 5531 5532 5533 5533 5533 5534 5536 5537 5538 5538 5537
5555 5548 5547 5547 5535 5532 5546 5548 5542 5539 5530 5527 5538 5544 5542 5540 5537 5535 5535 5534 5531 5528 5527 5526 5523 5521 5523 5523 5521 5518 5517 5517 5516 5516 5517 5519 5518 5517 5516 5516 5515 5514 5514 5513 5511 5510 5509 5509 5510 5510 5511 5512 5512 5511 5511 5512 5512 5513 5513 5513 5513 5513 5513 5513 5514 5514 5515 5515 5515 5515 5516 5516 5517 5518 5519 5520 5520 5521 5521 5521 5523 5524 5524 5525 5525 5525
5546 5541 5538 5537 5527 5523 5536 5539 5530 5523 5517 5523 5538 5539 5532 5530 5528 5526 5525 5523 5521 5520 5518 5515 5512 5510 5510 5511 5511 5510 5508 5507 5506 5504 5504 5505 5505 5504 5503 5503 5502 5502 5503 5502 5501 5499 5497 5497 5498 5498 5499 5500 5500 5501 5501 5501 5501 5501 5501 5501 5502 5502 5502 5502 5502 5502 5503 5503 5503 5503 5503 5504 5505 5506 5506 5508 5509 5509 5509 5510 5510 5511 5511 5512 5513 5513
5536 5533 5528 5527 5519 5515 5524 5526 5515 5509 5512 5520 5526 5525 5523 5522 5518 5515 5514 5511 5510 5510 5508 5505 5501 5498 5498 5498 5498 5499 5498 5497 5496 5493 5492 5492 5491 5490 5491 5491 5490 5490 5490 5490 5490 5488 5487 5486 5486 5486 5487 5488 5488 5489 5489 5489 5489 5489 5489 5489 5489 5490 5490 5490 5490 5491 5491 5491 5490 5490 5491 5492 5493 5493 5494 5495 5497 5498 5498 5498 5498 5499 5499 5500 5501 5502
5525 5524 5519 5516 5513 5508 5511 5511 5503 5500 5507 5511 5511 5512 5512 5510 5507 5505 5502 5499 5499 5499 5496 5493 5488 5485 5486 5485 5485 5485 5484 5484 5484 5482 5479 5478 5477 5476 5476 5477 5477 5477 5477 5477 5477 5476 5475 5474 5473 5473 5474 5474 5474 5474 5475 5475 5476 5476 5476 5476 5476 5476 5477 5477 5478 5478 5479 5479 5478 5478 5479 5479 5480 5481 5482 5483 5484 5485 5486 5486 5487 5487 5487 5488 5489 5489
5513 5513 5509 5506 5504 5502 5500 5497 5493 5492 5495 5500 5502 5502 5500 5498 5497 5494 5489 5487 5488 5487 5483 5480 5476 5473 5473 5472 5471 5470 5469 5470 5472 5470 5467 5464 5463 5462 5462 5463 5462 5462 5463 5463 5463 5463 5462 5461 5461 5461 5460 5461 5460 5459 5459 5460 5460 5462 5462 5462 5462 5462 5462 5463 5464 5465 5466 5466 5466 5466 5467 5467 5469 5470 5470 5471 5471 5472 5473 5474 5474 5475 5475 5476 5477 5477
5502 5501 5500 5495 5492 5494 5491 5486 5484 5483 5483 5488 5492 5491 5489 5488 5487 5483 5476 5474 5477 5476 5471 5467 5465 5462 5460 5459 5457 5456 5455 5456 5459 5460 5455 5450 5450 5450 5450 5449 5449 5448 5448 5448 5447 5448 5448 5448 5449 5449 5448 5447 5446 5445 5444 5444 5445 5446 5447 5448 5448 5448 5448 5449 5450 5450 5452 5454 5454 5454 5454 5455 5457 5458 5458 5459 5459 5460 5461 5462 5463 5463 5464 5465 5466 5466
5492 5490 5490 5485 5482 5484 5483 5477 5474 5474 5473 5477 5481 5481 5479 5477 5476 5472 5464 5461 5465 5465 5459 5455 5454 5451 5448 5446 5443 5442 5441 5442 5446 5449 5446 5439 5436 5438 5439 5438 5437 5436 5435 5435 5433 5433 5433 5434 5434 5435 5435 5434 5433 5432 5431 5431 5431 5432 5433 5433 5434 5434 5435 5435 5436 5437 5438 5440 5440 5441 5441 5442 5444 5445 5446 5447 5448 5448 5450 5450 5451 5452 5452 5453 5454 5454
5482 5480 5480 5476 5473 5475 5473 5467 5465 5465 5466 5469 5471 5471 5469 5465 5463 5459 5452 5451 5454 5452 5446 5442 5441 5438 5436 5433 5430 5428 5428 5428 5430 5435 5437 5432 5427 5426 5428 5427 5426 5425 5425 5423 5421 5420 5420 5420 5420 5421 5422 5420 5419 5418 5417 5417 5419 5419 5420 5421 5422 5422 5422 5422 5423 5424 5424 5426 5427 5427 5428 5429 5431 5432 5434 5435 5436 5437 5438 5439 5439 5440 5441 5442 5442 5442
5474 5472 5469 5466 5466 5466 5463 5458 5454 5454 5458 5462 5462 5460 5459 5455 5450 5446 5443 5442 5443 5439 5434 5431 5428 5426 5424 5421 5418 5416 5416 5417 5416 5418 5422 5422 5417 5415 5415 5415 5414 5415 5415 5413 5412 5409 5407 5407 5407 5407 5408 5408 5407 5406 5404 5403 5405 5406 5407 5408 5409 5408 5408 5408 5408 5409 5410 5412 5413 5414 5415 5416 5418 5419 5421 5422 5423 5425 5426 5427 5428 5428 5429 5431 5431 5431
5467 5464 5459 5458 5458 5457 5454 5449 5443 5443 5450 5455 5451 5449 5449 5443 5438 5436 5435 5432 5429 5426 5424 5421 5417 5414 5411 5408 5406 5405 5405 5406 5406 5405 5406 5407 5406 5403 5401 5401 5401 5402 5402 5402 5402 5400 5396 5395 5395 5395 5394 5394 5394 5393 5391 5390 5390 5391 5391 5392 5393 5392 5392 5393 5394 5394 5396 5398 5400 5401 5402 5403 5405 5406 5408 5409 5410 5412 5414 5415 5415 5416 5418 5419 5420 5420
5457 5452 5450 5452 5451 5445 5441 5438 5433 5435 5442 5444 5439 5438 5439 5434 5429 5427 5424 5421 5419 5417 5414 5411 5407 5404 5400 5397 5396 5395 5394 5395 5396 5394 5393 5393 5393 5391 5389 5388 5387 5387 5387 5387 5388 5387 5385 5383 5383 5383 5382 5382 5381 5380 5378 5376 5376 5378 5378 5378 5378 5376 5376 5378 5379 5380 5383 5385 5386 5388 5388 5389 5391 5393 5395 5396 5397 5399 5401 5402 5403 5404 5405 5407 5408 5409
5447 5443 5440 5441 5440 5434 5428 5427 5428 5429 5432 5432 5429 5428 5428 5425 5421 5417 5411 5409 5409 5408 5404 5399 5396 5395 5392 5390 5387 5385 5385 5384 5384 5382 5381 5379 5380 5379 5377 5375 5374 5373 5373 5373 5373 5373 5370 5367 5369 5371 5371 5370 5369 5367 5365 5362 5361 5364 5366 5366 5364 5362 5362 5363 5363 5365 5369 5372 5374 5375 5375 5375 5377 5379 5381 5383 5384 5386 5388 5389 5390 5392 5393 5394 5396 5398
5437 5436 5430 5426 5428 5425 5418 5419 5424 5423 5420 5422 5421 5418 5415 5413 5412 5408 5401 5398 5398 5397 5394 5390 5387 5387 5386 5382 5378 5375 5374 5373 5371 5370 5368 5366 5366 5366 5365 5363 5362 5360 5359 5358 5358 5357 5354 5351 5352 5353 5355 5357 5356 5354 5352 5349 5346 5347 5352 5354 5351 5347 5346 5347 5348 5350 5352 5356 5360 5363 5362 5362 5363 5365 5366 5368 5370 5372 5374 5375 5376 5379 5381 5382 5384 5386
5429 5429 5420 5415 5417 5416 5411 5415 5419 5413 5410 5412 5411 5407 5404 5402 5401 5398 5393 5389 5388 5386 5385 5382 5379 5378 5377 5373 5369 5365 5363 5361 5360 5358 5356 5354 5353 5353 5352 5351 5350 5347 5345 5344 5343 5342 5339 5336 5335 5336 5337 5340 5342 5340 5337 5334 5331 5331 5335 5338 5336 5332 5329 5330 5332 5334 5336 5338 5342 5347 5348 5348 5349 5351 5352 5354 5355 5357 5359 5361 5363 5365 5368 5370 5371 5373
5423 5420 5411 5409 5410 5406 5405 5412 5412 5404 5402 5403 5398 5396 5396 5392 5389 5389 5385 5382 5380 5378 5376 5374 5371 5368 5366 5363 5359 5356 5354 5352 5349 5346 5346 5343 5341 5342 5341 5338 5337 5334 5332 5330 5329 5327 5323 5321 5320 5319 5319 5321 5325 5324 5320 5318 5318 5317 5317 5319 5318 5314 5312 5313 5317 5319 5320 5322 5324 5328 5331 5333 5334 5336 5337 5339 5340 5341 5343 5347 5349 5351 5355 5358 5359 5360
5414 5408 5403 5404 5404 5398 5397 5404 5403 5395 5393 5393 5388 5386 5386 5383 5381 5381 5377 5374 5372 5369 5367 5366 5363 5359 5357 5354 5350 5346 5344 5343 5339 5335 5334 5332 5330 5330 5328 5325 5323 5321 5319 5318 5315 5311 5308 5306 5304 5303 5302 5304 5307 5307 5303 5302 5302 5301 5300 5299 5297 5294 5293 5296 5299 5300 5303 5306 5308 5310 5313 5315 5316 5319 5321 5323 5325 5327 5329 5332 5334 5337 5342 5346 5348 5349
5404 5398 5397 5395 5392 5390 5392 5395 5393 5385 5381 5383 5383 5379 5376 5373 5372 5372 5369 5366 5364 5361 5360 5358 5355 5352 5348 5345 5341 5337 5334 5333 5330 5326 5322 5320 5320 5318 5315 5313 5310 5308 5306 5304 5301 5297 5293 5291 5289 5287 5287 5288 5290 5289 5287 5286 5286 5284 5283 5280 5276 5273 5274 5278 5280 5281 5284 5288 5291 5293 5296 5297 5298 5301 5303 5305 5308 5310 5313 5316 5318 5321 5327 5333 5337 5339
5394 5390 5391 5385 5379 5381 5385 5386 5381 5373 5370 5375 5376 5371 5366 5364 5363 5362 5360 5358 5355 5353 5351 5349 5346 5344 5341 5336 5332 5328 5325 5323 5321 5317 5312 5311 5309 5307 5303 5300 5297 5295 5293 5291 5287 5283 5279 5276 5274 5271 5270 5272 5272 5270 5269 5269 5268 5268 5266 5262 5256 5254 5255 5257 5259 5261 5265 5270 5272 5275 5277 5279 5280 5283 5284 5286 5289 5292 5296 5300 5303 5305 5311 5318 5324 5326
5386 5382 5383 5377 5371 5372 5375 5375 5371 5365 5361 5364 5365 5360 5358 5357 5355 5353 5351 5349 5347 5344 5341 5339 5337 5335 5333 5330 5326 5320 5316 5314 5312 5308 5303 5302 5300 5296 5292 5288 5284 5281 5280 5277 5273 5269 5266 5263 5260 5257 5255 5255 5255 5252 5251 5251 5251 5252 5250 5245 5239 5237 5237 5238 5238 5241 5247 5251 5253 5255 5257 5258 5260 5263 5265 5267 5271 5274 5278 5283 5288 5292 5297 5304 5308 5311